Location: ??
(35.5052°N, 139.7262°E)
Time: 19:38:15
(UTC+00:00)

Cosmos 1867 - Visible Passes

Search period start: 17 October 2021 00:00
Search period end: 27 October 2021 00:00
Orbit: 773 x 803 km, 65.0° (Epoch: 16 October)

Date Brightness Start Highest point End Pass type
(mag) Time Alt. Az. Time Alt. Az. Time Alt. Az.
19 Oct 6.7 20:01:45 10° SE 20:04:56 16° ESE 20:08:07 10° ENE visible
20 Oct 7.1 19:32:27 10° ESE 19:33:27 10° ESE 19:34:28 10° E visible
22 Oct 4.7 20:07:44 10° S 20:12:56 49° ESE 20:18:12 10° NE visible
23 Oct 5.3 19:36:30 10° S 19:41:21 34° ESE 19:46:16 10° NE visible
24 Oct 5.8 19:05:30 10° SSE 19:09:48 24° ESE 19:14:08 10° ENE visible
25 Oct 6.2 18:34:52 10° SSE 18:38:17 17° ESE 18:41:43 10° ENE visible
25 Oct 3.7 20:16:01 10° SW 20:21:20 57° WNW 20:26:45 10° NNE visible
26 Oct 6.5 18:05:05 10° ESE 18:06:48 11° ESE 18:08:32 10° E visible
26 Oct 3.5 19:44:12 10° SSW 19:49:37 80° WNW 19:55:08 10° NNE visible
